Weather History for Port Angeles, WA

Change the Weather History Date:

Wednesday, December 19, 2012

  Actual Average Record
Temperature  
Mean Temperature 38 °F -  
Max Temperature 43 °F 44 °F 55 °F (1959)
Min Temperature 32 °F 33 °F 19 °F (1990)
Degree Days  
Heating Degree Days 28    
Moisture  
Dew Point 36 °F    
Average Humidity 90    
Maximum Humidity 97    
Minimum Humidity 73    
Precipitation  
Precipitation 0.25 in - - ()
Sea Level Pressure  
Sea Level Pressure 29.55 in    
Wind  
Wind Speed 4 mph (SW)    
Max Wind Speed 15 mph    
Max Gust Speed 22 mph    
Visibility 9 miles    
Events Rain    
Averages and records for this station are not official NWS values.
T = Trace of Precipitation, MM = Missing Value Source: NWS Daily Summary

Daily Weather History Graph

Daily Weather History Graph

Search for Another Location

Airport:

Trip Planner

Search our weather history database for the weather conditions in past years. The results will help you decide how hot, cold, wet, or windy it might be!

Date:

Astronomy

Dec. 19, 2012 Rise Set
Actual Time 8:00 AM PST 4:22 PM PST
Civil Twilight 7:24 AM PST 4:58 PM PST
Nautical Twilight 6:44 AM PST 5:38 PM PST
Astronomical Twilight 6:06 AM PST 6:16 PM PST
Moon 11:41 AM PST (12/19) No Moon Set
Length of Visible Light 9h 34m
Length of Day
8h 21m
Waxing Crescent, 46% of the Moon is Illuminated
Dec 19
Waxing Crescent
Dec 19
First Quarter
Dec 28
Full
Jan 4
Last Quarter
Jan 11
New

Hourly Weather History & Observations

Time (PST) Temp. Windchill Dew Point Humidity Pressure Visibility Wind Dir Wind Speed Gust Speed Precip Events Conditions
12:53 AM 32.0 °F - 28.9 °F 88% 29.80 in 10.0 mi North - - N/A   Mostly Cloudy
1:53 AM 36.0 °F - 28.0 °F 73% 29.74 in 10.0 mi North - - N/A   Overcast
2:53 AM 35.1 °F - 28.9 °F 78% 29.71 in 10.0 mi North - - N/A   Overcast
3:53 AM 33.1 °F - 28.9 °F 85% 29.66 in 10.0 mi North - - N/A   Overcast
4:53 AM 34.0 °F - 30.0 °F 85% 29.62 in 10.0 mi North - - 0.00 in Rain Light Rain
5:06 AM 34.0 °F - 32.0 °F 92% 29.62 in 10.0 mi North - - 0.01 in Rain Light Rain
5:53 AM 36.0 °F - 33.1 °F 89% 29.62 in 10.0 mi North - - 0.01 in Rain Light Rain
6:53 AM 36.0 °F - 34.0 °F 93% 29.56 in 10.0 mi Calm Calm - 0.01 in Rain Light Rain
7:53 AM 36.0 °F 29.6 °F 34.0 °F 93% 29.54 in 10.0 mi WNW 8.1 mph - 0.00 in Rain Light Rain
8:53 AM 41.0 °F 33.1 °F 36.0 °F 82% 29.53 in 9.0 mi SE 15.0 mph 21.9 mph 0.01 in Rain Rain
9:53 AM 41.0 °F - 37.9 °F 89% 29.51 in 10.0 mi Calm Calm - 0.02 in Rain Light Rain
10:53 AM 41.0 °F - 39.0 °F 93% 29.52 in 10.0 mi Calm Calm - 0.01 in Rain Light Rain
11:53 AM 41.0 °F 39.0 °F 37.9 °F 89% 29.51 in 9.0 mi WNW 3.5 mph - 0.02 in Rain Light Rain
12:40 PM 41.0 °F - 39.0 °F 93% 29.49 in 2.5 mi Calm Calm - 0.04 in Rain Rain
12:53 PM 42.1 °F 40.2 °F 39.0 °F 89% 29.48 in 3.0 mi Variable 3.5 mph - 0.08 in Rain Rain
1:03 PM 41.0 °F 38.0 °F 39.0 °F 93% 29.46 in 2.5 mi SE 4.6 mph - 0.04 in Rain Rain
1:20 PM 42.1 °F 39.2 °F 39.0 °F 89% 29.47 in 5.0 mi NNE 4.6 mph - 0.08 in Rain Light Rain
1:53 PM 43.0 °F 41.3 °F 39.9 °F 89% 29.49 in 6.0 mi SSW 3.5 mph - 0.09 in Rain Light Rain
2:53 PM 42.1 °F 40.2 °F 39.9 °F 92% 29.49 in 10.0 mi SE 3.5 mph - 0.00 in Rain Light Rain
3:53 PM 41.0 °F 37.1 °F 37.9 °F 89% 29.47 in 10.0 mi WNW 5.8 mph - 0.00 in   Mostly Cloudy
4:53 PM 41.0 °F 35.8 °F 37.0 °F 86% 29.47 in 10.0 mi West 8.1 mph - N/A   Mostly Cloudy
5:53 PM 42.1 °F 36.1 °F 37.0 °F 82% 29.49 in 10.0 mi West 10.4 mph - 0.00 in Rain Light Rain
6:42 PM 43.0 °F 38.2 °F 39.0 °F 86% 29.52 in 10.0 mi NW 8.1 mph - 0.00 in Rain Light Rain
6:53 PM 42.1 °F 35.7 °F 39.0 °F 89% 29.52 in 10.0 mi NW 11.5 mph - 0.00 in Rain Light Rain
7:03 PM 42.1 °F 37.1 °F 39.0 °F 89% 29.52 in 10.0 mi WNW 8.1 mph 17.3 mph 0.00 in Rain Light Rain
7:11 PM 41.0 °F 36.4 °F 39.0 °F 93% 29.53 in 10.0 mi NW 6.9 mph - 0.00 in Rain Light Rain
7:32 PM 41.0 °F 36.4 °F 37.9 °F 89% 29.54 in 10.0 mi NW 6.9 mph - 0.00 in Rain Light Rain
7:53 PM 39.9 °F - 37.9 °F 93% 29.55 in 10.0 mi Calm Calm - 0.00 in Rain Light Rain
7:57 PM 39.9 °F 37.8 °F 37.9 °F 93% 29.54 in 10.0 mi East 3.5 mph - 0.00 in Rain Light Rain
8:48 PM 39.2 °F 35.9 °F 37.4 °F 93% 29.54 in 10.0 mi SE 4.6 mph - 0.00 in Rain Light Rain
8:53 PM 39.9 °F 35.8 °F 37.9 °F 93% 29.55 in 10.0 mi SSE 5.8 mph - 0.00 in Rain Light Rain
9:03 PM 39.9 °F 37.8 °F 37.9 °F 93% 29.54 in 10.0 mi SE 3.5 mph - 0.00 in Rain Light Rain
9:53 PM 39.9 °F 37.8 °F 39.0 °F 97% 29.53 in 10.0 mi ESE 3.5 mph - 0.00 in   Overcast
10:11 PM 39.9 °F 37.8 °F 37.9 °F 93% 29.53 in 10.0 mi ESE 3.5 mph - N/A   Overcast
10:26 PM 39.0 °F 35.7 °F 37.0 °F 93% 29.53 in 10.0 mi SSE 4.6 mph - N/A   Overcast
10:53 PM 39.0 °F - 37.9 °F 96% 29.52 in 10.0 mi Calm Calm - N/A   Overcast
11:38 PM 39.0 °F 35.7 °F 37.0 °F 93% 29.51 in 10.0 mi SW 4.6 mph - N/A   Mostly Cloudy
11:53 PM 39.9 °F 35.8 °F 37.9 °F 93% 29.52 in 10.0 mi WSW 5.8 mph - N/A   Overcast